Weather History for KTCM - July, 2014

Change the Weather History Date:

Saturday, July 19, 2014

  Actual Average Record
Temperature  
Mean Temperature 70 °F -  
Max Temperature 80 °F 75 °F 95 °F (1988)
Min Temperature 59 °F 52 °F 44 °F (1962)
Cooling Degree Days 4    
Growing Degree Days 20 (Base 50)    
Moisture  
Dew Point 59 °F    
Average Humidity 80    
Maximum Humidity 100    
Minimum Humidity 51    
Precipitation  
Precipitation 0.00 in - - ()
Sea Level Pressure  
Sea Level Pressure 30.03 in    
Wind  
Wind Speed 9 mph (SSW)    
Max Wind Speed 18 mph    
Max Gust Speed 32 mph    
Visibility 10 miles    
Events      
Averages and records for this station are not official NWS values.
T = Trace of Precipitation, MM = Missing Value Source: NWS Daily Summary

Daily Weather History Graph

Daily Weather History Graph

Search for Another Location

Airport or City:

Trip Planner

Search our weather history database for the weather conditions in past years. The results will help you decide how hot, cold, wet, or windy it might be!

Date:

Astronomy

Jul. 19, 2014 Rise Set
Actual Time 5:33 AM PDT 8:58 PM PDT
Civil Twilight 4:56 AM PDT 9:35 PM PDT
Nautical Twilight 4:06 AM PDT 10:24 PM PDT
Astronomical Twilight 3:01 AM PDT 11:28 PM PDT
Moon 12:24 AM PDT (7/19) 2:35 PM PDT (7/19)
Length of Visible Light 16h 39m
Length of Day
15h 24m
Last Quarter, 43% of the Moon is Illuminated
Jul 19
Last Quarter
Jul 26
New
Aug 3
First Quarter
Aug 10
Full
Aug 17
Last Quarter

Hourly Weather History & Observations

Time (PDT) Temp. Heat Index Dew Point Humidity Pressure Visibility Wind Dir Wind Speed Gust Speed Precip Events Conditions
12:58 AM 59.9 °F - 56.3 °F 88% 30.09 in 10.0 mi SW 2.3 mph - N/A   Clear
1:43 AM 59.0 °F - 55.4 °F 88% 30.08 in 10.0 mi SSW 8.1 mph - N/A   Mostly Cloudy
1:48 AM 59.0 °F - 55.4 °F 88% 30.08 in 10.0 mi SSW 8.1 mph - N/A   Mostly Cloudy
1:58 AM 59.4 °F - 56.1 °F 89% 30.10 in 10.0 mi SW 8.1 mph - N/A   Mostly Cloudy
2:03 AM 59.0 °F - 55.4 °F 88% 30.09 in 10.0 mi SSW 5.8 mph - N/A   Overcast
2:58 AM 59.7 °F - 56.8 °F 90% 30.09 in 10.0 mi South 6.9 mph - N/A   Overcast
3:08 AM 60.8 °F - 57.2 °F 88% 30.07 in 10.0 mi South 4.6 mph - N/A   Overcast
3:43 AM 60.8 °F - 57.2 °F 88% 30.07 in 10.0 mi South 6.9 mph - N/A   Overcast
3:58 AM 59.9 °F - 57.4 °F 91% 30.08 in 10.0 mi SSW 8.1 mph - N/A   Overcast
4:17 AM 59.0 °F - 57.2 °F 94% 30.07 in 9.0 mi SSW 9.2 mph - N/A   Overcast
4:58 AM 59.4 °F - 58.8 °F 98% 30.09 in 10.0 mi South 5.8 mph - N/A   Overcast
5:23 AM 59.0 °F - 59.0 °F 100% 30.08 in 9.0 mi SSE 4.6 mph - N/A   Overcast
5:58 AM 59.5 °F - 59.2 °F 99% 30.09 in 6.0 mi South 5.8 mph - N/A   Overcast
6:28 AM 59.0 °F - 59.0 °F 100% 30.09 in 8.0 mi South 6.9 mph - N/A   Overcast
6:48 AM 59.0 °F - 59.0 °F 100% 30.09 in 10.0 mi South 6.9 mph - N/A   Overcast
6:53 AM 59.0 °F - 59.0 °F 100% 30.08 in 8.0 mi South 6.9 mph - N/A   Overcast
6:58 AM 59.7 °F - 59.4 °F 99% 30.09 in 6.0 mi South 6.9 mph - N/A   Overcast
7:03 AM 59.0 °F - 59.0 °F 100% 30.08 in 6.0 mi South 6.9 mph - N/A   Overcast
7:33 AM 60.8 °F - 59.0 °F 94% 30.08 in 10.0 mi South 8.1 mph - N/A   Overcast
7:43 AM 60.8 °F - 59.0 °F 94% 30.08 in 10.0 mi SSW 8.1 mph - N/A   Overcast
7:58 AM 61.3 °F - 58.8 °F 91% 30.08 in 10.0 mi South 9.2 mph - N/A   Overcast
8:08 AM 62.6 °F - 59.0 °F 88% 30.07 in 10.0 mi SSW 9.2 mph - N/A   Overcast
8:58 AM 62.8 °F - 57.9 °F 84% 30.08 in 10.0 mi SSW 11.5 mph - N/A   Overcast
9:53 AM 66.2 °F - 59.0 °F 78% 30.05 in 10.0 mi South 13.8 mph - N/A   Overcast
9:58 AM 67.5 °F - 59.0 °F 74% 30.06 in 10.0 mi SSW 10.4 mph - N/A   Overcast
10:08 AM 69.8 °F - 59.0 °F 68% 30.04 in 10.0 mi SSW 13.8 mph 20.7 mph N/A   Mostly Cloudy
10:13 AM 69.8 °F - 59.0 °F 68% 30.04 in 10.0 mi SSW 11.5 mph 20.7 mph N/A   Scattered Clouds
10:58 AM 74.5 °F - 60.4 °F 61% 30.05 in 10.0 mi SSW 17.3 mph - N/A   Clear
11:58 AM 77.2 °F - 61.7 °F 59% 30.03 in 10.0 mi SW 18.4 mph 24.2 mph N/A   Clear
12:49 PM 78.8 °F - 62.6 °F 57% 30.02 in 10.0 mi SSW 15.0 mph 25.3 mph N/A   Scattered Clouds
12:58 PM 79.0 °F - 62.4 °F 57% 30.03 in 10.0 mi SSW 16.1 mph 24.2 mph N/A   Mostly Cloudy
1:50 PM 78.8 °F - 62.6 °F 57% 30.01 in 10.0 mi WSW 16.1 mph 23.0 mph N/A   Overcast
1:58 PM 78.4 °F - 62.8 °F 58% 30.02 in 10.0 mi SW 18.4 mph 26.5 mph N/A   Mostly Cloudy
2:13 PM 80.6 °F 81.8 °F 62.6 °F 54% 30.01 in 10.0 mi West 17.3 mph 25.3 mph N/A   Mostly Cloudy
2:58 PM 80.6 °F 81.9 °F 63.0 °F 55% 30.01 in 10.0 mi SW 17.3 mph 26.5 mph N/A   Mostly Cloudy
3:58 PM 80.6 °F 81.5 °F 60.8 °F 51% 29.99 in 10.0 mi WSW 13.8 mph 32.2 mph N/A   Mostly Cloudy
4:58 PM 76.3 °F - 62.8 °F 63% 29.98 in 10.0 mi West 16.1 mph - N/A   Overcast
5:58 PM 72.0 °F - 62.2 °F 71% 29.98 in 10.0 mi West 16.1 mph - N/A   Overcast
6:58 PM 69.6 °F - 60.6 °F 73% 29.98 in 10.0 mi West 13.8 mph - N/A   Overcast
7:58 PM 68.5 °F - 60.3 °F 75% 29.97 in 10.0 mi West 15.0 mph - N/A   Overcast
8:23 PM 68.0 °F - 60.8 °F 78% 29.95 in 10.0 mi West 11.5 mph - N/A   Overcast
8:58 PM 66.7 °F - 60.1 °F 79% 29.96 in 10.0 mi West 8.1 mph - N/A   Overcast
9:28 PM 66.2 °F - 59.0 °F 78% 29.96 in 10.0 mi WSW 9.2 mph - N/A   Overcast
9:33 PM 66.2 °F - 59.0 °F 78% 29.96 in 10.0 mi SW 9.2 mph - N/A   Overcast
9:48 PM 66.2 °F - 59.0 °F 78% 29.96 in 10.0 mi SW 9.2 mph - N/A   Overcast
9:53 PM 66.2 °F - 59.0 °F 78% 29.96 in 10.0 mi SW 10.4 mph - N/A   Overcast
9:58 PM 66.4 °F - 59.4 °F 78% 29.97 in 10.0 mi SSW 12.7 mph - N/A   Overcast
10:08 PM 66.2 °F - 59.0 °F 78% 29.97 in 10.0 mi SW 12.7 mph - N/A   Overcast
10:53 PM 64.4 °F - 59.0 °F 83% 29.96 in 10.0 mi SSW 9.2 mph - N/A   Scattered Clouds
10:58 PM 63.7 °F - 58.5 °F 83% 29.97 in 10.0 mi SSW 10.4 mph - N/A   Partly Cloudy
11:58 PM 62.2 °F - 58.1 °F 86% 29.97 in 10.0 mi SW 9.2 mph - N/A   Clear